Theta_e
352 355 360 362 362 361 358 357 358 359 360 360 360 359 359 360 359 359 360 359 359 355 353 351 351 348 347 346 347 348 350 353
350 355 359 362 362 361 358 358 358 359 359 360 360 360 359 359 358 358 358 359 357 357 355 352 351 348 346 344 346 349 351 351
351 355 357 361 362 361 360 359 358 358 359 360 360 360 360 359 358 358 358 358 358 357 356 354 350 348 345 345 346 349 352 352
353 354 355 357 360 361 360 359 359 358 358 359 359 359 359 360 359 358 358 358 358 357 356 354 351 348 346 346 346 348 351 352
350 352 351 356 357 356 357 360 359 358 358 358 359 359 359 359 359 358 357 357 358 357 356 354 351 349 347 346 345 347 350 352
347 347 349 352 357 358 355 356 359 358 357 358 359 359 357 354 355 355 356 356 357 357 356 354 352 349 348 347 347 347 350 348
341 345 347 350 354 356 354 354 354 354 353 354 354 354 354 351 351 353 354 356 357 357 356 355 353 351 350 341 337 341 342 345
333 340 347 349 351 353 352 352 353 352 354 354 353 353 354 350 350 352 350 352 351 354 351 349 347 342 340 337 336 334 335 339
311 335 343 346 348 351 351 350 351 350 350 350 350 352 350 347 346 347 347 346 347 347 347 345 340 338 335 334 333 332 333 338
302 307 331 341 344 347 348 349 349 349 348 349 349 350 349 345 344 345 345 343 343 344 343 342 339 336 333 331 331 333 335 340
305 304 307 326 341 344 347 347 348 349 348 348 348 349 348 346 343 342 342 342 340 342 342 339 338 335 332 330 331 336 340 340
311 307 306 309 335 339 343 345 347 348 349 347 347 348 347 346 341 341 340 340 340 340 340 337 336 332 330 330 332 338 341 340
313 312 311 311 317 335 337 341 346 347 347 347 347 347 346 346 342 339 338 338 341 339 338 335 334 332 331 330 333 338 339 338
312 312 313 314 312 321 334 335 341 345 346 347 347 348 346 347 342 340 338 338 340 339 337 336 333 333 333 335 337 338 338 337
313 313 313 314 314 314 325 334 336 339 344 346 346 347 346 346 345 340 339 338 338 338 335 333 334 335 336 336 338 337 335 334
313 312 312 312 314 315 317 330 333 335 339 341 343 345 344 344 345 340 340 337 337 336 337 335 336 336 337 337 333 331 331 332
311 311 312 312 313 314 315 321 330 334 337 339 341 342 343 343 344 342 340 338 338 336 335 335 337 334 335 333 330 327 325 329
311 311 312 312 312 313 314 316 320 326 330 333 334 337 339 341 342 342 340 340 339 337 335 334 336 336 331 331 331 329 322 323
311 312 312 312 312 313 314 313 313 315 318 329 335 336 337 340 341 341 341 340 339 336 336 334 337 337 333 330 326 325 324 326
Wind_Speed
7 6 9 11 13 13 15 14 13 14 15 15 15 15 16 15 15 14 13 12 11 11 10 9 7 6 6 5 3 4 3 2
5 5 7 12 12 13 15 15 15 14 13 13 15 15 15 14 14 13 12 12 11 10 9 8 6 5 4 5 3 2 2 2
6 4 5 10 11 13 14 15 15 15 14 13 12 13 12 12 12 11 11 10 10 10 8 7 6 5 4 3 3 2 1 3
6 4 2 3 7 11 12 14 15 16 16 15 13 11 11 11 10 10 10 9 8 7 8 7 7 5 4 3 3 3 4 4
4 5 5 4 3 3 4 11 12 12 14 15 15 14 12 10 9 9 8 8 8 8 8 8 7 6 4 4 4 4 5 5
2 4 4 5 5 5 4 6 9 13 13 13 13 14 11 5 5 8 8 10 10 9 9 9 8 6 5 4 4 6 7 3
6 7 7 6 10 8 8 6 5 5 4 4 5 6 6 6 6 8 9 12 11 10 9 9 8 7 4 1 2 4 3 4
6 4 8 9 8 10 9 4 4 5 4 5 5 6 7 6 5 5 4 3 3 8 3 4 3 2 3 2 3 3 4 4
7 7 6 8 9 11 6 5 6 6 6 6 9 8 6 6 5 5 4 5 4 4 4 4 3 3 4 4 4 5 6 4
6 8 8 5 6 6 8 7 8 8 7 8 7 9 9 8 6 5 5 5 5 4 5 4 3 3 4 4 4 5 5 6
9 8 8 7 6 7 9 8 7 8 8 7 7 9 14 9 7 6 5 5 6 5 4 4 4 3 3 3 5 5 6 5
7 9 9 8 5 7 10 9 8 6 7 8 9 11 14 11 8 7 6 6 6 5 6 3 3 2 3 4 6 5 4 5
7 10 9 8 8 6 6 5 7 7 7 8 8 8 14 14 10 8 6 6 5 5 4 4 4 3 5 4 3 4 4 3
6 7 10 10 9 8 6 5 5 6 8 8 6 8 12 13 12 9 7 6 5 5 4 4 3 4 3 4 5 4 3 3
6 6 7 8 7 8 6 4 3 3 7 6 8 9 11 10 11 10 7 7 6 5 5 3 5 4 4 3 3 2 0 1
9 8 6 8 8 6 3 3 3 7 7 7 8 13 12 11 11 11 9 7 7 9 9 8 4 5 4 3 3 1 1 3
9 8 9 7 7 6 3 3 4 4 5 8 6 9 11 12 12 10 11 10 10 8 8 7 6 3 2 5 4 2 2 0
12 12 11 8 8 7 7 4 4 4 4 4 5 8 11 14 13 13 12 11 11 10 9 8 9 8 4 3 3 4 3 4
14 12 9 8 9 9 8 6 6 7 8 6 8 8 10 14 15 14 14 13 11 9 11 10 9 9 5 6 2 1 2 3
Wind_Direction
113 123 152 149 147 149 150 152 155 154 154 157 159 158 156 157 156 157 159 161 167 174 181 181 174 163 149 142 155 138 138 168
115 131 153 160 159 158 159 160 160 161 163 167 166 166 165 163 163 162 165 168 175 184 189 192 186 177 154 139 158 162 162 204
132 132 153 174 173 168 170 171 167 167 168 173 175 174 171 170 170 169 174 178 187 191 199 202 203 191 164 156 161 191 211 249
116 120 130 174 190 192 185 182 177 174 172 173 178 181 182 181 182 178 182 187 202 206 212 217 221 212 184 190 196 212 232 255
122 145 155 160 197 207 201 197 191 188 183 179 179 181 186 191 192 192 191 197 208 217 229 230 236 232 215 220 237 233 249 247
167 186 179 175 189 195 198 212 208 206 199 194 191 188 181 177 193 201 201 207 212 222 233 240 243 247 247 245 253 254 253 241
205 201 191 186 197 197 216 203 185 196 192 207 207 199 188 186 186 194 206 214 219 226 236 247 253 257 270 249 255 272 255 251
222 204 200 192 186 199 209 187 206 215 207 191 194 201 203 203 204 200 192 209 200 228 230 251 267 266 259 245 259 258 247 244
226 225 207 193 182 198 193 188 199 208 210 217 216 198 198 220 206 201 200 199 199 207 221 230 245 263 269 257 241 256 262 252
297 308 287 203 205 207 198 190 185 200 208 213 207 214 210 213 210 208 205 195 202 194 215 226 232 252 270 279 270 252 255 235
330 293 285 264 237 190 200 211 211 197 198 194 203 212 221 216 205 198 207 209 208 202 209 209 216 237 256 268 274 263 266 219
332 328 322 287 243 229 215 208 199 213 214 203 203 208 222 216 204 206 203 206 217 203 204 189 210 225 258 260 263 263 242 213
348 352 336 341 317 252 246 242 219 200 202 213 216 207 219 218 198 197 209 219 205 194 197 194 192 219 235 225 252 258 227 210
346 348 346 346 344 314 256 231 252 249 208 206 212 219 217 210 200 192 208 221 199 200 196 204 209 199 219 217 236 235 213 208
345 351 338 333 336 338 308 260 232 238 234 221 207 210 214 217 200 191 202 214 190 199 207 184 203 208 214 218 214 173 93 59
354 346 343 333 330 341 334 310 262 240 234 235 223 212 204 203 203 198 203 199 201 207 218 201 190 188 209 163 111 73 54 30
325 325 327 319 315 310 289 263 277 284 261 239 232 242 214 203 198 197 203 206 213 215 201 190 179 169 183 172 142 109 174 201
336 329 318 306 296 287 278 283 272 264 256 240 221 219 220 206 205 202 203 207 210 205 213 197 189 177 167 178 176 146 147 212
324 313 298 287 286 288 288 282 255 260 260 258 246 230 228 218 208 206 205 204 204 205 206 201 189 196 154 170 135 167 42 134